TIME,DELAY(SENSOR),PRES,OXYGEN,RAWTEMP,T(OPTODE),TCPHASE,FLUOR,BETA(BETA700),BETA(BETA412),BETA(BETA440),CDOM,C(CSC),ED(ED412.40),ED(ED444.00),ED(ED489.70),ED(ED554.30),LU(LU411.80),LU(LU443.40),LU(LU489.60),LU(LU554.10),COMP,TILTX,TILTY,CHECK
1353641539,5804,900.0900268554688000,45.9021682739257800,663.8223266601562000,4.5020542144775390,54.1723289489746100,53,100,86,80,80,15150,2147751277,2147421814,2148009691,2147877193,2147642331,2147058761,2148260580,2147191113,1467,4,13,43896
1353645135,5803,967.8699951171875000,49.0633811950683600,673.3718872070312000,4.1867470741271970,53.8440589904785160,52,101,94,78,82,15143,2147757248,2147421622,2148007204,2147874532,2147641024,2147060553,2148259145,2147188891,516,4,13,33600
1353648735,5809,987.5200195312500000,49.5786705017089840,674.4691772460938000,4.1504502296447750,53.7818794250488300,52,99,86,78,81,15152,2147754477,2147422198,2148005348,2147876498,2147641828,2147060425,2148259913,2147192182,251,4,13,60092
1353652335,5810,1000.9099731445312000,49.3498306274414060,674.4503784179688000,4.1510720252990720,53.8132400512695300,52,99,88,80,81,15149,2147755968,2147422994,2148010450,2147871981,2147644918,2147061348,2148258788,2147196873,153,4,13,14488
1353655935,5809,1006.6099853515625000,49.1039009094238300,674.3809204101562000,4.1533718109130860,53.8481483459472660,53,100,85,79,81,15148,2147755200,2147422546,2148007872,2147875245,2147643611,2147057618,2148262921,2147194121,584,4,13,53499
1353659535,5810,999.3499755859375000,49.2151298522949200,675.3826293945312000,4.1202239990234375,53.8446884155273440,53,98,83,80,81,15149,2147757860,2147422976,2148010148,2147875355,2147643693,2147063524,2148262326,2147191890,382,4,13,61789
1353663135,5806,1001.4299926757812000,49.1306495666503900,674.9932861328125000,4.1331062316894530,53.8520393371582000,52,97,90,79,81,15152,2147758573,2147420452,2148008950,2147876608,2147645851,2147058441,2148260955,2147195483,122,4,13,25089
1353666735,5811,1002.2700195312500000,49.3253097534179700,676.3176879882812000,4.0892729759216310,53.8428001403808600,53,99,88,79,81,15147,2147758628,2147421522,2148011200,2147873801,2147640228,2147059465,2148257764,2147194852,317,4,13,2513
1353670335,5809,1004.5399780273438000,50.1305313110351560,677.3447875976562000,4.0552620887756350,53.7455101013183600,53,100,89,79,82,15147,2147757558,2147420397,2148010523,2147872000,2147639954,2147057389,2148264960,2147194989,23,4,13,24145
1353673935,5810,1003.5399780273438000,49.3092613220214840,676.3692016601562000,4.0875678062438965,53.8431205749511700,52,98,88,79,81,15145,2147754980,2147418285,2148009216,2147874459,2147638875,2147057042,2148259584,2147194523,272,4,13,15476
1353677535,5810,1016.0900268554688000,49.1015014648437500,675.3624267578125000,4.1208930015563965,53.8622589111328100,53,100,86,78,81,15143,2147754368,2147423744,2148006793,2147875172,2147644964,2147056155,2148261266,2147195840,3243,4,13,60089
1353681135,5806,1014.0599975585938000,48.9372711181640600,674.7868041992188000,4.1399421691894530,53.8770408630371100,52,99,88,80,81,15143,2147754880,2147421476,2148010761,2147873380,2147639433,2147060086,2148257645,2147199661,3278,4,13,3637
1353684735,5804,1015.5000000000000000,48.7865295410156250,674.2593994140625000,4.1573910713195800,53.8941001892089840,53,98,86,79,81,15140,2147755154,2147420260,2148007981,2147873325,2147642925,2147064301,2148257472,2147193078,3548,4,13,64190
1353688335,5807,1007.7700195312500000,48.1761016845703100,674.4514160156250000,4.1510372161865230,53.9793815612793000,53,101,87,79,80,15142,2147755666,2147421348,2148008539,2147874861,2147642084,2147061275,2148260699,2147193901,250,4,13,28702
1353691935,5809,1008.2299804687500000,48.4692993164062500,675.2407226562500000,4.1249241828918460,53.9454498291015600,53,99,87,77,80,15143,2147756992,2147423323,2148008402,2147871762,2147644470,2147060937,2148263277,2147195300,119,4,13,36862
1353695535,5805,1007.9600219726562000,48.8584289550781250,675.6320800781250000,4.1119689941406250,53.9007301330566400,52,99,90,80,79,15139,2147757851,2147419611,2148007387,2147873344,2147643803,2147061677,2148263067,2147194697,3493,4,13,13264
1353699135,5808,1011.5100097656250000,48.9960899353027340,675.4575195312500000,4.1177458763122560,53.8800392150878900,52,98,88,80,81,15143,2147755501,2147419035,2148011090,2147873993,2147641371,2147057426,2148255579,2147198884,157,4,13,2762
1353702735,5808,1015.4600219726562000,48.8077583312988300,675.0703735351562000,4.1305561065673830,53.8954200744628900,52,100,87,79,80,15139,2147758345,2147421760,2148008914,2147873819,2147642368,2147062345,2148261568,2147197970,3459,4,13,45161
1353706335,5812,1013.9600219726562000,47.9641113281250000,674.7158813476562000,4.1422882080078125,54.0096397399902340,52,98,91,78,82,15140,2147757330,2147420854,2148007552,2147874304,2147646976,2147061641,2148261915,2147194788,16,5,13,30839
1353709935,5808,1001.4899902343750000,48.9124488830566400,676.9295043945312000,4.0690169334411620,53.9059486389160160,53,101,86,80,80,15139,2147754971,2147421156,2148008960,2147872932,2147638701,2147057947,2148262939,2147194989,180,4,13,7408
1353713535,5810,1005.0499877929688000,49.6388511657714840,677.4890747070312000,4.0504841804504395,53.8129081726074200,52,98,92,78,81,15140,2147753572,2147421138,2148007332,2147874651,2147640685,2147057060,2148262381,2147197403,3344,4,13,23112
1353717135,5810,1009.5499877929688000,49.3218002319335940,677.4915771484375000,4.0504021644592285,53.8564186096191400,52,97,89,79,82,15136,2147754816,2147423936,2148008630,2147872557,2147643136,2147063168,2148257097,2147197412,38,4,13,4469
1353720735,5810,1007.7299804687500000,49.2938690185546900,677.0714111328125000,4.0643200874328610,53.8588294982910160,53,100,90,79,82,15143,2147752521,2147419529,2148013531,2147873993,2147639616,2147058633,2148261622,2147194770,190,4,13,52447
1353724335,5811,1011.0999755859375000,49.2351112365722660,677.2122192382812000,4.0596561431884770,53.8641090393066400,53,97,87,79,81,15127,2147755968,2147421577,2148008987,2147874020,2147640237,2147053869,2148260873,2147195245,7,4,13,21577
1353727935,5809,1013.0100097656250000,49.5917282104492200,677.3245849609375000,4.0559329986572270,53.8197288513183600,53,98,86,80,79,15105,2147755931,2147418304,2148007369,2147874468,2147644013,2147058340,2148260333,2147194331,3570,4,13,6936
1353731535,5810,1018.6300048828125000,49.4672584533691400,676.7354125976562000,4.0754451751708980,53.8267707824707000,52,99,87,78,81,15105,2147756882,2147421595,2148008886,2147873801,2147640658,2147060187,2148258386,2147196242,42,4,13,25079
1353735135,5808,1015.3699951171875000,48.5480384826660160,675.8225097656250000,4.1056652069091800,53.9425392150878900,53,100,87,79,81,15102,2147757120,2147419081,2148009444,2147875465,2147643620,2147059785,2148258560,2147198464,83,5,13,24311
1353738735,5810,1019.9600219726562000,48.4270782470703100,675.7352905273438000,4.1085510253906250,53.9594192504882800,51,99,88,78,81,15102,2147754130,2147418569,2148008694,2147874285,2147645376,2147055277,2148259894,2147197705,274,4,13,41716
1353742335,5807,1013.7899780273438000,47.9708099365234400,675.6555786132812000,4.1111888885498050,54.0248718261718750,52,102,84,80,81,15099,2147753408,2147418889,2148009526,2147877485,2147642770,2147058998,2148260790,2147194852,275,4,13,23050
1353745935,5809,1011.9600219726562000,49.2852401733398440,677.7609252929688000,4.0414848327636720,53.8676490783691400,52,98,86,79,82,15102,2147755821,2147421522,2148008859,2147872064,2147645193,2147065024,2148264310,2147194605,2802,4,13,9815
1353749535,5808,1014.7100219726562000,49.2649497985839840,676.9998779296875000,4.0666851997375490,53.8589591979980500,53,100,87,79,81,15103,2147756854,2147421878,2148007817,2147873024,2147643318,2147057810,2148259392,2147194560,83,4,13,43177
1353753135,5807,1010.3599853515625000,48.9688110351562500,676.7664794921875000,4.0744152069091800,53.8994102478027340,53,98,86,80,80,15102,2147752457,2147421001,2148010770,2147875986,2147642541,2147055250,2148256457,2147192201,3560,4,13,38803
1353756735,5808,1015.9099731445312000,49.6394309997558600,677.5579833984375000,4.0482029914855960,53.8159599304199200,53,98,87,79,82,15102,2147756096,2147420946,2148007926,2147876013,2147642496,2147054628,2148263360,2147195867,3525,4,13,45309
1353760335,5809,1016.3099975585938000,49.2284507751464840,677.2570190429688000,4.0581722259521480,53.8666992187500000,52,98,86,81,81,15102,2147755419,2147420589,2148010953,2147874550,2147644288,2147058706,2148264146,2147194084,74,4,13,19546
1353763935,5809,1006.9899902343750000,49.2338294982910160,677.3853759765625000,4.0539212226867680,53.8726387023925800,52,100,87,78,82,15100,2147756013,2147423744,2148011501,2147873572,2147643986,2147058614,2148258742,2147193536,590,4,13,14406
1353767535,5810,1011.0599975585938000,49.6549110412597660,678.0557250976562000,4.0317192077636720,53.8157310485839840,52,104,90,79,82,15100,2147757001,2147420754,2148012196,2147874541,2147642285,2147057371,2148266157,2147195721,172,4,13,24045
1353771135,5808,1018.1300048828125000,49.4655113220214840,677.5614013671875000,4.0480899810791020,53.8420715332031250,53,100,86,80,81,15097,2147756114,2147421942,2148011986,2147874806,2147645650,2147058934,2148258934,2147199670,150,4,13,25044
1353774735,5810,1017.6300048828125000,49.5953102111816400,677.5053710937500000,4.0499439239501950,53.8208999633789060,53,98,88,78,81,15099,2147755565,2147421732,2148006253,2147874285,2147647168,2147059776,2148258715,2147195474,12,4,13,13414
1353778335,5809,1023.2500000000000000,48.9410285949707000,676.6212768554688000,4.0792222023010250,53.8971481323242200,52,101,87,79,81,15100,2147754624,2147420041,2148006573,2147876342,2147644205,2147063488,2148262628,2147198326,367,4,13,35278
1353781935,5809,1024.4799804687500000,48.5179481506347660,674.6052246093750000,4.1459498405456540,53.9362297058105500,52,98,85,79,80,15095,2147755748,2147421504,2148010413,2147878272,2147644882,2147060882,2148261604,2147195721,3382,4,13,23693
1353785535,5809,1022.4199829101562000,48.1962394714355500,674.6329956054688000,4.1450309753417970,53.9816093444824200,53,98,88,79,81,15096,2147756937,2147422244,2148007881,2147874806,2147644013,2147060352,2148257307,2147195474,3408,4,13,16892
1353786355,5808,1021.8099975585938000,48.2837104797363300,674.8347778320312000,4.1383528709411620,53.9676017761230500,53,100,88,79,81,15138,2147755922,2147421229,2148008402,2147875821,2147643017,2147060589,2148259995,2147194706,3103,4,13,61450
